Time,TemperatureF,DewpointF,PressureIn,WindDirection,WindDirectionDegrees,WindSpeedMPH,WindSpeedGustMPH,Humidity,HourlyPrecipIn,Conditions,Clouds,dailyrainin,SoftwareType,DateUTC
2013-02-28 00:02:00,43.0,38.0,-100.00,SW,220,0.0,3.0,82,0.00,,,-99.99,,2013-02-28 05:02:00,
2013-02-28 00:11:00,42.0,38.0,-100.00,WNW,285,0.0,3.0,84,0.00,,,-99.99,,2013-02-28 05:11:00,
2013-02-28 00:22:00,42.0,38.0,-100.00,WNW,285,0.0,3.0,84,0.00,,,-99.99,,2013-02-28 05:22:00,
2013-02-28 00:32:00,42.0,38.0,-100.00,West,265,0.0,5.0,85,0.00,,,-99.99,,2013-02-28 05:32:00,
2013-02-28 00:42:00,42.0,38.0,-100.00,WNW,285,0.0,3.0,88,0.00,,,-99.99,,2013-02-28 05:42:00,
2013-02-28 00:52:00,42.0,38.0,-100.00,WNW,285,0.0,3.0,88,0.00,,,-99.99,,2013-02-28 05:52:00,
2013-02-28 01:02:00,42.0,38.0,-100.00,SW,220,0.0,4.0,88,0.00,,,-99.99,,2013-02-28 06:02:00,
2013-02-28 01:11:00,41.0,38.0,-100.00,SSW,205,0.0,3.0,89,0.00,,,-99.99,,2013-02-28 06:11:00,
2013-02-28 01:22:00,41.0,38.0,-100.00,SSW,205,0.0,3.0,89,0.00,,,-99.99,,2013-02-28 06:22:00,
2013-02-28 01:32:00,42.0,39.0,-100.00,NW,310,1.0,4.0,90,0.00,,,-99.99,,2013-02-28 06:32:00,
2013-02-28 01:42:00,42.0,39.0,-100.00,WSW,240,0.0,6.0,90,0.00,,,-99.99,,2013-02-28 06:42:00,
2013-02-28 01:52:00,42.0,39.0,-100.00,WSW,245,0.0,6.0,90,0.00,,,-99.99,,2013-02-28 06:52:00,
2013-02-28 02:01:00,42.0,39.0,-100.00,WSW,245,0.0,6.0,90,0.00,,,-99.99,,2013-02-28 07:01:00,
2013-02-28 02:11:00,42.0,39.0,-100.00,WNW,285,0.0,4.0,89,0.00,,,-99.99,,2013-02-28 07:11:00,
2013-02-28 02:21:00,43.0,39.0,-100.00,WSW,255,0.0,5.0,88,0.00,,,-99.99,,2013-02-28 07:21:00,
2013-02-28 02:32:00,43.0,39.0,-100.00,WSW,255,0.0,5.0,88,0.00,,,-99.99,,2013-02-28 07:32:00,
2013-02-28 02:42:00,42.0,39.0,-100.00,SW,230,0.0,4.0,88,0.00,,,-99.99,,2013-02-28 07:42:00,
2013-02-28 02:51:00,42.0,39.0,-100.00,West,260,0.0,7.0,89,0.00,,,-99.99,,2013-02-28 07:51:00,
2013-02-28 03:01:00,42.0,39.0,-100.00,West,260,0.0,7.0,89,0.00,,,-99.99,,2013-02-28 08:01:00,
2013-02-28 03:11:00,42.0,39.0,-100.00,SSW,210,0.0,7.0,89,0.00,,,-99.99,,2013-02-28 08:11:00,
2013-02-28 03:22:00,42.0,39.0,-100.00,West,260,1.0,7.0,89,0.00,,,-99.99,,2013-02-28 08:22:00,
2013-02-28 03:32:00,42.0,39.0,-100.00,West,260,1.0,7.0,89,0.00,,,-99.99,,2013-02-28 08:32:00,
2013-02-28 03:42:00,43.0,38.0,-100.00,WNW,285,4.0,8.0,82,0.00,,,-99.99,,2013-02-28 08:42:00,
2013-02-28 03:52:00,43.0,36.0,-100.00,West,280,6.0,10.0,77,0.00,,,-99.99,,2013-02-28 08:52:00,
2013-02-28 04:03:00,43.0,36.0,-100.00,West,280,6.0,10.0,77,0.00,,,-99.99,,2013-02-28 09:03:00,
2013-02-28 04:12:00,42.0,35.0,-100.00,West,260,2.0,11.0,76,0.00,,,-99.99,,2013-02-28 09:12:00,
2013-02-28 04:22:00,42.0,36.0,-100.00,NW,325,4.0,8.0,78,0.00,,,-99.99,,2013-02-28 09:22:00,
2013-02-28 04:32:00,42.0,36.0,-100.00,NW,325,4.0,8.0,78,0.00,,,-99.99,,2013-02-28 09:32:00,
2013-02-28 04:42:00,42.0,36.0,-100.00,NW,310,5.0,10.0,78,0.00,,,-99.99,,2013-02-28 09:42:00,
2013-02-28 04:52:00,42.0,35.0,-100.00,West,265,5.0,14.0,77,0.00,,,-99.99,,2013-02-28 09:52:00,
2013-02-28 05:02:00,42.0,35.0,-100.00,West,265,5.0,14.0,77,0.00,,,-99.99,,2013-02-28 10:02:00,
2013-02-28 05:11:00,41.0,35.0,-100.00,West,260,6.0,12.0,77,0.00,,,-99.99,,2013-02-28 10:11:00,
2013-02-28 05:22:00,41.0,35.0,-100.00,West,260,6.0,12.0,77,0.00,,,-99.99,,2013-02-28 10:22:00,
2013-02-28 05:32:00,41.0,34.0,-100.00,NW,305,4.0,11.0,77,0.00,,,-99.99,,2013-02-28 10:32:00,
2013-02-28 05:42:00,41.0,33.0,-100.00,West,270,7.0,12.0,75,0.00,,,-99.99,,2013-02-28 10:42:00,
2013-02-28 05:52:00,40.0,33.0,-100.00,West,275,6.0,10.0,74,0.00,,,-99.99,,2013-02-28 10:52:00,
2013-02-28 06:02:00,40.0,33.0,-100.00,West,275,6.0,10.0,74,0.00,,,-99.99,,2013-02-28 11:02:00,
2013-02-28 06:11:00,40.0,32.0,-100.00,WNW,285,7.0,13.0,72,0.00,,,-99.99,,2013-02-28 11:11:00,
2013-02-28 06:22:00,40.0,32.0,-100.00,West,260,6.0,11.0,73,0.00,,,-99.99,,2013-02-28 11:22:00,
2013-02-28 06:32:00,40.0,32.0,-100.00,West,260,6.0,11.0,73,0.00,,,-99.99,,2013-02-28 11:32:00,
2013-02-28 06:42:00,39.0,31.0,-100.00,WSW,250,4.0,10.0,73,0.00,,,-99.99,,2013-02-28 11:42:00,
2013-02-28 06:52:00,38.0,31.0,-100.00,SW,230,1.0,9.0,74,0.00,,,-99.99,,2013-02-28 11:52:00,
2013-02-28 07:02:00,38.0,31.0,-100.00,SW,230,1.0,9.0,74,0.00,,,-99.99,,2013-02-28 12:02:00,
2013-02-28 07:12:00,37.0,31.0,-100.00,West,270,2.0,7.0,77,0.00,,,-99.99,,2013-02-28 12:12:00,
2013-02-28 07:22:00,37.0,31.0,-100.00,West,270,2.0,7.0,77,0.00,,,-99.99,,2013-02-28 12:22:00,
2013-02-28 07:32:00,37.0,31.0,-100.00,West,275,2.0,6.0,80,0.00,,,-99.99,,2013-02-28 12:32:00,
2013-02-28 07:42:00,37.0,31.0,-100.00,WSW,255,1.0,7.0,78,0.00,,,-99.99,,2013-02-28 12:42:00,
2013-02-28 07:52:00,38.0,31.0,-100.00,West,275,2.0,7.0,78,0.00,,,-99.99,,2013-02-28 12:52:00,
2013-02-28 08:02:00,38.0,31.0,-100.00,West,275,2.0,7.0,78,0.00,,,-99.99,,2013-02-28 13:02:00,
2013-02-28 08:11:00,39.0,32.0,-100.00,West,280,2.0,7.0,75,0.00,,,-99.99,,2013-02-28 13:11:00,
2013-02-28 08:22:00,39.0,32.0,-100.00,West,280,2.0,7.0,75,0.00,,,-99.99,,2013-02-28 13:22:00,
2013-02-28 08:32:00,40.0,32.0,-100.00,WSW,250,5.0,10.0,72,0.00,,,-99.99,,2013-02-28 13:32:00,
2013-02-28 08:42:00,42.0,31.0,-100.00,WSW,255,6.0,15.0,65,0.00,,,-99.99,,2013-02-28 13:42:00,
2013-02-28 08:52:00,42.0,31.0,-100.00,West,260,4.0,14.0,64,0.00,,,-99.99,,2013-02-28 13:52:00,
2013-02-28 09:02:00,42.0,31.0,-100.00,West,260,4.0,14.0,64,0.00,,,-99.99,,2013-02-28 14:02:00,
2013-02-28 09:12:00,43.0,31.0,-100.00,WSW,240,4.0,13.0,61,0.00,,,-99.99,,2013-02-28 14:12:00,
2013-02-28 09:22:00,43.0,31.0,-100.00,West,280,4.0,12.0,61,0.00,,,-99.99,,2013-02-28 14:22:00,
2013-02-28 09:32:00,43.0,31.0,-100.00,West,280,4.0,12.0,61,0.00,,,-99.99,,2013-02-28 14:32:00,
2013-02-28 09:42:00,44.0,30.0,-100.00,NW,310,7.0,17.0,58,0.00,,,-99.99,,2013-02-28 14:42:00,
2013-02-28 09:52:00,44.0,30.0,-100.00,NW,310,7.0,17.0,58,0.00,,,-99.99,,2013-02-28 14:52:00,
2013-02-28 10:02:00,46.0,31.0,-100.00,SW,225,3.0,17.0,57,0.00,,,-99.99,,2013-02-28 15:02:00,
2013-02-28 10:11:00,44.0,29.0,-100.00,WNW,300,9.0,13.0,54,0.00,,,-99.99,,2013-02-28 15:11:00,
2013-02-28 10:22:00,45.0,29.0,-100.00,WNW,295,6.0,14.0,55,0.00,,,-99.99,,2013-02-28 15:22:00,
2013-02-28 10:32:00,45.0,29.0,-100.00,WNW,295,6.0,14.0,55,0.00,,,-99.99,,2013-02-28 15:32:00,
2013-02-28 10:42:00,45.0,30.0,-100.00,WSW,255,6.0,11.0,56,0.00,,,-99.99,,2013-02-28 15:42:00,
2013-02-28 10:52:00,45.0,29.0,-100.00,NW,320,5.0,14.0,54,0.00,,,-99.99,,2013-02-28 15:52:00,
2013-02-28 11:02:00,45.0,29.0,-100.00,NW,320,5.0,14.0,54,0.00,,,-99.99,,2013-02-28 16:02:00,
2013-02-28 11:12:00,44.0,28.0,-100.00,WNW,285,10.0,16.0,54,0.00,,,-99.99,,2013-02-28 16:12:00,
2013-02-28 11:22:00,45.0,29.0,-100.00,WSW,255,4.0,17.0,54,0.00,,,-99.99,,2013-02-28 16:22:00,
2013-02-28 11:32:00,45.0,29.0,-100.00,WSW,255,4.0,17.0,54,0.00,,,-99.99,,2013-02-28 16:32:00,
2013-02-28 11:42:00,45.0,29.0,-100.00,West,260,5.0,19.0,53,0.00,,,-99.99,,2013-02-28 16:42:00,
2013-02-28 11:53:00,45.0,29.0,-100.00,West,280,11.0,22.0,53,0.00,,,-99.99,,2013-02-28 16:53:00,
2013-02-28 12:02:00,45.0,29.0,-100.00,West,280,11.0,22.0,53,0.00,,,-99.99,,2013-02-28 17:02:00,
2013-02-28 12:12:00,44.0,28.0,-100.00,NW,305,12.0,18.0,53,0.00,,,-99.99,,2013-02-28 17:12:00,
2013-02-28 12:22:00,44.0,28.0,-100.00,NW,305,12.0,18.0,53,0.00,,,-99.99,,2013-02-28 17:22:00,
2013-02-28 12:32:00,45.0,29.0,-100.00,West,260,3.0,15.0,54,0.00,,,-99.99,,2013-02-28 17:32:00,
2013-02-28 12:42:00,44.0,29.0,-100.00,WNW,290,9.0,19.0,57,0.00,,,-99.99,,2013-02-28 17:42:00,
2013-02-28 12:53:00,44.0,29.0,-100.00,WNW,290,9.0,19.0,57,0.00,,,-99.99,,2013-02-28 17:53:00,
2013-02-28 13:02:00,44.0,30.0,-100.00,WSW,245,4.0,12.0,58,0.00,,,-99.99,,2013-02-28 18:02:00,
2013-02-28 13:12:00,44.0,31.0,-100.00,WSW,250,4.0,11.0,59,0.00,,,-99.99,,2013-02-28 18:12:00,
2013-02-28 13:22:00,42.0,30.0,-100.00,SW,230,6.0,15.0,61,0.00,,,-99.99,,2013-02-28 18:22:00,
2013-02-28 13:32:00,42.0,30.0,-100.00,SW,230,6.0,15.0,61,0.00,,,-99.99,,2013-02-28 18:32:00,
2013-02-28 13:42:00,41.0,32.0,-100.00,NW,310,7.0,22.0,69,0.00,,,-99.99,,2013-02-28 18:42:00,
2013-02-28 13:52:00,42.0,34.0,-100.00,NW,310,7.0,13.0,73,0.00,,,-99.99,,2013-02-28 18:52:00,
2013-02-28 14:02:00,42.0,34.0,-100.00,NW,310,7.0,13.0,73,0.00,,,-99.99,,2013-02-28 19:02:00,
2013-02-28 14:12:00,43.0,34.0,-100.00,WNW,300,7.0,19.0,69,0.00,,,-99.99,,2013-02-28 19:12:00,
2013-02-28 14:22:00,43.0,34.0,-100.00,WNW,300,7.0,19.0,69,0.00,,,-99.99,,2013-02-28 19:22:00,
2013-02-28 14:32:00,43.0,33.0,-100.00,SW,235,4.0,20.0,66,0.00,,,-99.99,,2013-02-28 19:32:00,
2013-02-28 14:42:00,43.0,32.0,-100.00,West,280,9.0,17.0,64,0.00,,,-99.99,,2013-02-28 19:42:00,
2013-02-28 14:52:00,43.0,32.0,-100.00,West,280,9.0,17.0,64,0.00,,,-99.99,,2013-02-28 19:52:00,
2013-02-28 15:01:00,45.0,32.0,-100.00,WSW,245,5.0,17.0,60,0.00,,,-99.99,,2013-02-28 20:01:00,
2013-02-28 15:12:00,44.0,31.0,-100.00,West,270,6.0,15.0,60,0.00,,,-99.99,,2013-02-28 20:12:00,
2013-02-28 15:22:00,44.0,31.0,-100.00,West,270,6.0,15.0,60,0.00,,,-99.99,,2013-02-28 20:22:00,
2013-02-28 15:32:00,44.0,30.0,-100.00,NW,305,9.0,21.0,59,0.00,,,-99.99,,2013-02-28 20:32:00,
2013-02-28 15:42:00,43.0,30.0,-100.00,WNW,300,9.0,16.0,59,0.00,,,-99.99,,2013-02-28 20:42:00,
2013-02-28 15:52:00,44.0,30.0,-100.00,NW,305,10.0,20.0,57,0.00,,,-99.99,,2013-02-28 20:52:00,
2013-02-28 16:02:00,44.0,30.0,-100.00,NW,305,10.0,20.0,57,0.00,,,-99.99,,2013-02-28 21:02:00,
2013-02-28 16:11:00,44.0,30.0,-100.00,NNW,335,12.0,21.0,58,0.00,,,-99.99,,2013-02-28 21:11:00,
2013-02-28 16:22:00,44.0,30.0,-100.00,NNW,335,12.0,21.0,58,0.00,,,-99.99,,2013-02-28 21:22:00,
2013-02-28 16:32:00,44.0,30.0,-100.00,West,260,11.0,18.0,58,0.00,,,-99.99,,2013-02-28 21:32:00,
2013-02-28 16:42:00,43.0,30.0,-100.00,WNW,300,7.0,17.0,59,0.00,,,-99.99,,2013-02-28 21:42:00,
2013-02-28 16:52:00,43.0,30.0,-100.00,WNW,300,7.0,17.0,59,0.00,,,-99.99,,2013-02-28 21:52:00,
2013-02-28 17:01:00,43.0,30.0,-100.00,WNW,290,4.0,17.0,60,0.00,,,-99.99,,2013-02-28 22:01:00,
2013-02-28 17:11:00,43.0,31.0,-100.00,West,280,9.0,17.0,62,0.00,,,-99.99,,2013-02-28 22:11:00,
2013-02-28 17:22:00,43.0,31.0,-100.00,West,280,9.0,17.0,62,0.00,,,-99.99,,2013-02-28 22:22:00,
2013-02-28 17:32:00,42.0,31.0,-100.00,North,355,6.0,15.0,64,0.00,,,-99.99,,2013-02-28 22:32:00,
2013-02-28 17:42:00,42.0,31.0,-100.00,WNW,295,10.0,17.0,67,0.00,,,-99.99,,2013-02-28 22:42:00,
2013-02-28 17:52:00,40.0,32.0,-100.00,West,275,9.0,17.0,71,0.00,,,-99.99,,2013-02-28 22:52:00,
2013-02-28 18:01:00,40.0,32.0,-100.00,West,275,9.0,17.0,71,0.00,,,-99.99,,2013-02-28 23:01:00,
2013-02-28 18:11:00,40.0,33.0,-100.00,West,275,5.0,12.0,74,0.00,,,-99.99,,2013-02-28 23:11:00,
2013-02-28 18:22:00,41.0,33.0,-100.00,West,280,3.0,9.0,74,0.00,,,-99.99,,2013-02-28 23:22:00,
2013-02-28 18:32:00,41.0,33.0,-100.00,West,280,3.0,9.0,74,0.00,,,-99.99,,2013-02-28 23:32:00,
2013-02-28 18:42:00,41.0,33.0,-100.00,NW,310,3.0,9.0,73,0.00,,,-99.99,,2013-02-28 23:42:00,
2013-02-28 18:52:00,41.0,33.0,-100.00,NW,310,3.0,9.0,73,0.00,,,-99.99,,2013-02-28 23:52:00,
2013-02-28 19:02:00,41.0,33.0,-100.00,WNW,300,2.0,7.0,72,0.00,,,-99.99,,2013-03-01 00:02:00,
2013-02-28 19:11:00,41.0,32.0,-100.00,WNW,285,6.0,11.0,71,0.00,,,-99.99,,2013-03-01 00:11:00,
2013-02-28 19:22:00,42.0,32.0,-100.00,WNW,285,3.0,11.0,69,0.00,,,-99.99,,2013-03-01 00:22:00,
2013-02-28 19:32:00,42.0,32.0,-100.00,WNW,285,3.0,11.0,69,0.00,,,-99.99,,2013-03-01 00:32:00,
2013-02-28 19:42:00,41.0,32.0,-100.00,WSW,245,0.0,11.0,70,0.00,,,-99.99,,2013-03-01 00:42:00,
2013-02-28 19:51:00,41.0,32.0,-100.00,West,260,3.0,10.0,70,0.00,,,-99.99,,2013-03-01 00:51:00,
2013-02-28 20:01:00,41.0,32.0,-100.00,West,260,3.0,10.0,70,0.00,,,-99.99,,2013-03-01 01:01:00,
2013-02-28 20:11:00,41.0,32.0,-100.00,West,265,4.0,13.0,70,0.00,,,-99.99,,2013-03-01 01:11:00,
2013-02-28 20:21:00,41.0,32.0,-100.00,West,265,4.0,13.0,70,0.00,,,-99.99,,2013-03-01 01:21:00,
2013-02-28 20:32:00,41.0,32.0,-100.00,WNW,290,6.0,11.0,70,0.00,,,-99.99,,2013-03-01 01:32:00,
2013-02-28 20:42:00,41.0,32.0,-100.00,West,265,6.0,10.0,70,0.00,,,-99.99,,2013-03-01 01:42:00,
2013-02-28 20:51:00,41.0,32.0,-100.00,WNW,290,5.0,12.0,70,0.00,,,-99.99,,2013-03-01 01:51:00,
2013-02-28 21:01:00,41.0,32.0,-100.00,WNW,290,5.0,12.0,70,0.00,,,-99.99,,2013-03-01 02:01:00,
2013-02-28 21:11:00,41.0,32.0,-100.00,West,270,4.0,9.0,70,0.00,,,-99.99,,2013-03-01 02:11:00,
2013-02-28 21:21:00,41.0,32.0,-100.00,West,280,6.0,15.0,69,0.00,,,-99.99,,2013-03-01 02:21:00,
2013-02-28 21:32:00,41.0,32.0,-100.00,West,280,6.0,15.0,69,0.00,,,-99.99,,2013-03-01 02:32:00,
2013-02-28 21:42:00,41.0,32.0,-100.00,WNW,300,6.0,14.0,69,0.00,,,-99.99,,2013-03-01 02:42:00,
2013-02-28 21:52:00,41.0,32.0,-100.00,WNW,300,6.0,14.0,69,0.00,,,-99.99,,2013-03-01 02:52:00,
2013-02-28 22:02:00,41.0,32.0,-100.00,West,280,6.0,13.0,70,0.00,,,-99.99,,2013-03-01 03:02:00,
2013-02-28 22:12:00,41.0,32.0,-100.00,WNW,295,6.0,12.0,70,0.00,,,-99.99,,2013-03-01 03:12:00,
2013-02-28 22:21:00,41.0,32.0,-100.00,West,270,5.0,9.0,71,0.00,,,-99.99,,2013-03-01 03:21:00,
2013-02-28 22:32:00,41.0,32.0,-100.00,West,270,5.0,9.0,71,0.00,,,-99.99,,2013-03-01 03:32:00,
2013-02-28 22:42:00,41.0,32.0,-100.00,West,280,4.0,9.0,71,0.00,,,-99.99,,2013-03-01 03:42:00,
2013-02-28 22:51:00,41.0,32.0,-100.00,West,275,5.0,11.0,72,0.00,,,-99.99,,2013-03-01 03:51:00,
2013-02-28 23:01:00,41.0,32.0,-100.00,West,275,5.0,11.0,72,0.00,,,-99.99,,2013-03-01 04:01:00,
2013-02-28 23:12:00,41.0,32.0,-100.00,WNW,295,6.0,14.0,72,0.00,,,-99.99,,2013-03-01 04:12:00,
2013-02-28 23:21:00,41.0,32.0,-100.00,WNW,295,6.0,14.0,72,0.00,,,-99.99,,2013-03-01 04:21:00,
2013-02-28 23:32:00,41.0,33.0,-100.00,WNW,295,7.0,12.0,73,0.00,,,-99.99,,2013-03-01 04:32:00,
2013-02-28 23:42:00,40.0,33.0,-100.00,WNW,285,6.0,11.0,74,0.00,,,-99.99,,2013-03-01 04:42:00,
2013-02-28 23:52:00,40.0,33.0,-100.00,WSW,245,2.0,11.0,75,0.00,,,-99.99,,2013-03-01 04:52:00,